Location: Cabri�res
(43.7840°N, 5.4986°E)
Time: 01:46:03
(UTC+00:00)

Cosmos 1437 - Pass Details

Date: 09 April 2020
Orbit: 373 x 376 km, 81.2° (Epoch: 05 June)

Event Time Altitude Azimuth Distance (km) Brightness Sun altitude
Rises 19:07:43 0° 342° (NNW) 2,255 7.1 -10.0°
Reaches altitude 10° 19:09:47 10° 334° (NNW) 1,396 6.1 -10.3°
Maximum altitude 19:12:37 37° 265° (W) 600 4.1 -10.8°
Drops below altitude 10° 19:15:25 10° 195° (SSW) 1,379 5.3 -11.2°
Sets 19:17:27 0° 187° (S) 2,223 6.3 -11.6°
